Location: Unspecified
(41.9031°N, 12.4386°E)
Time: 05:47:30
(UTC+01:00)

ISS - Pass Details

Date: 21 February 2020
Orbit: 415 x 423 km, 51.6° (Epoch: 27 February)

Event Time Altitude Azimuth Distance (km) Brightness Sun altitude
Rises 05:51:33 0° 205° (SSW) 2,349 -0.2 -13.2°
Reaches altitude 10° 05:53:52 10° 191° (S) 1,491 -1.0 -12.7°
Maximum altitude 05:56:38 24° 135° (SE) 907 -1.5 -12.2°
Drops below altitude 10° 05:59:26 10° 79° (ENE) 1,504 0.4 -11.7°
Sets 06:01:47 0° 65° (ENE) 2,373 1.2 -11.3°
